#timestamp,LO_Frequency,Hit,StdDev 
1671397215.6,286046996.6,N
1671397235.4,286046999.1,N
1671397255.2,286047000.6,N
1671397275.1,286047000.2,N
1671397276.0,286047000.2,N
1671397295.8,286047002.8,N
1671397315.6,286047001.5,N
1671397335.5,286047001.3,N
1671397355.3,286047002.0,N
1671397375.2,286047002.6,N
1671397395.9,286047002.1,N
1671397415.7,286047001.9,N
1671397435.6,286047002.5,N
1671397455.4,286047002.1,N
1671397475.3,286047002.0,N
1671397495.1,286047002.4,N
1671397496.0,286047002.4,N
1671397515.8,286046999.8,N
1671397535.7,286047001.5,N
1671397555.5,286047001.5,N
1671397575.4,286046999.9,N
1671397595.2,286047002.5,N
1671397615.0,286047002.8,N
1671397615.9,286047002.8,N
1671397635.8,286047000.6,N
1671397655.6,286046999.7,N
1671397675.4,286047001.8,N
1671397695.3,286047000.9,N
1671397715.1,286047000.7,N
1671397735.9,286046999.7,N
1671397755.7,286047002.1,N
1671397775.5,286047001.8,N
1671397795.4,286047001.8,N
1671397815.2,286047001.9,N
1671397835.1,286047002.4,N
1671397836.0,286047002.4,N
1671397855.8,286047001.5,N
1671397875.6,286047002.4,N
1671397895.5,286047001.9,N
1671397915.3,286047000.5,N
1671397935.1,286046998.6,N
1671397955.9,286046998.2,N
1671397975.7,286047002.4,N
1671397995.6,286047002.1,N
1671398015.4,286047001.8,N
1671398035.2,286047001.6,N
1671398055.1,286047002.5,N
1671398056.0,286047002.5,N
1671398075.8,286047000.2,N
1671398095.6,286047000.1,N
1671398115.5,286046999.9,N
1671398135.3,286047002.8,N
1671398155.2,286047002.5,N
1671398175.9,286047002.3,N
1671398195.7,286047002.1,N
1671398215.6,286047003.9,Y
1671398235.4,286047000.5,P
1671398255.2,286046998.1,P
1671398275.1,286046998.4,N
1671398276.0,286046998.4,N
1671398295.8,286046997.8,N
1671398315.7,286046996.9,N
1671398335.5,286046998.3,N
1671398355.3,286046998.2,N
1671398375.2,286047000.0,N
1671398395.0,286047000.8,N
1671398395.9,286047000.8,N
1671398415.7,286047000.9,N
1671398435.6,286047000.7,N
1671398455.4,286047000.9,N
1671398475.3,286047000.3,N
1671398495.1,286047002.6,N
1671398515.8,286047000.8,N
1671398535.7,286046997.0,N
1671398555.5,286046998.7,N
1671398575.4,286046995.0,Y
1671398595.2,286046997.5,P
1671398615.0,286046997.3,N
1671398615.9,286046997.3,N
1671398635.8,286046999.1,N
1671398655.6,286046996.7,Y
1671398675.5,286046998.5,P
1671398695.3,286047001.0,P
1671398715.1,286047000.1,N
1671398735.9,286047002.1,N
1671398755.7,286047001.5,N
1671398775.6,286047002.0,N
1671398795.4,286047002.5,N
1671398815.2,286047001.8,N
1671398835.1,286047000.2,N
1671398836.0,286047000.2,N
1671398855.8,286046998.7,N
1671398875.7,286046997.5,N
1671398895.5,286046997.3,N
1671398915.4,286046996.1,N
1671398935.2,286046994.1,Y
1671398955.0,286046995.0,P
1671398955.9,286046995.0,N
1671398975.8,286046998.0,N
1671398995.6,286046998.4,N
1671399015.5,286046995.3,N
1671399035.3,286046997.2,N
1671399055.1,286047000.5,N
1671399075.9,286046998.8,N
1671399095.7,286046999.3,N
1671399115.5,286047000.9,N
1671399135.4,286046998.1,N
1671399155.2,286046999.9,N
1671399175.1,286047001.5,N
1671399176.0,286047001.5,N
1671399195.8,286047001.8,N
1671399215.7,286047001.5,N
1671399235.5,286047001.7,N
1671399255.3,286047001.6,N
1671399275.2,286047001.3,N
1671399295.9,286047001.7,N
1671399315.7,286047001.6,N
1671399335.6,286047001.4,N
1671399355.4,286047003.5,N
1671399375.3,286047005.7,N
1671399395.1,286047005.6,N
1671399396.0,286047005.6,N
1671399415.8,286047005.5,N
1671399435.7,286047005.5,N
1671399455.5,286047004.7,N
1671399475.3,286047003.2,N
1671399495.2,286047005.3,N
1671399515.0,286047005.1,N
1671399515.9,286047005.1,N
1671399535.8,286047004.7,N
1671399555.6,286047007.6,N
1671399575.4,286047005.6,N
1671399595.3,286047003.2,N
1671399615.1,286047003.8,N
1671399635.8,286047003.1,N
1671399655.7,286047003.4,N
1671399675.5,286047003.3,N
1671399695.4,286047001.7,N
1671399715.2,286047002.5,N
1671399735.0,286047002.7,N
1671399735.9,286047002.7,N
1671399755.8,286047001.6,N
1671399775.6,286047002.5,N
1671399795.4,286047003.1,N
1671399815.3,286047003.9,N
1671399835.1,286047002.1,N
1671399855.9,286047003.5,N
1671399875.7,286047003.8,N
1671399895.6,286047005.0,Y
1671399915.4,286047000.6,P
1671399935.2,286047000.1,N
1671399955.1,286047002.2,N
1671399956.0,286047002.2,N
1671399975.8,286047000.9,N
1671399995.6,286046998.1,N
1671400015.5,286047000.3,N
1671400035.3,286047000.4,N
1671400055.2,286046998.9,N
1671400075.9,286046998.7,N
1671400095.7,286047000.8,N
1671400115.6,286047001.1,N
1671400135.4,286046999.1,N
1671400155.3,286046995.4,Y
1671400175.1,286046995.7,P
1671400176.0,286046995.7,N
1671400195.8,286046995.3,N
1671400215.7,286046995.2,N
1671400235.5,286046993.9,Y
1671400255.3,286046999.6,P
1671400275.2,286046999.1,N
1671400295.0,286046998.6,N
1671400295.9,286046998.6,N
1671400315.8,286047000.3,N
1671400335.6,286047000.4,N
1671400355.4,286047002.5,N
1671400375.3,286047001.9,N
1671400395.1,286047001.7,N
1671400415.8,286047001.7,N
1671400435.7,286047004.2,N
1671400455.5,286047004.1,N
1671400475.4,286047003.9,N
1671400495.2,286047001.4,N
1671400515.4,286047001.5,N
1671400535.3,286047002.3,N
1671400555.1,286047001.9,N
1671400575.8,286047001.5,N
1671400595.7,286046998.3,N
1671400615.5,286046999.0,N
1671400635.4,286047000.0,N
1671400655.2,286047000.9,N
1671400675.0,286047001.1,N
1671400675.9,286047001.1,N
1671400695.8,286047002.4,N
1671400715.6,286047000.1,N
1671400735.5,286047002.5,N
1671400755.3,286047000.8,N
1671400775.1,286046998.9,N
1671400795.9,286046997.1,N
